Rygge, Norway

10:26 AM CET on January 22, 2018 (GMT +0100)
Rygge Air Base

Weather History for ENRY - December, 2012

Change the Weather History Date:

Tuesday, December 18, 2012

  Actual Average Record
Temperature  
Mean Temperature 30 °F -  
Max Temperature 31 °F 32 °F 48 °F (2015)
Min Temperature 28 °F 24 °F 8 °F (2002)
Degree Days  
Heating Degree Days 36    
Moisture  
Dew Point 29 °F    
Average Humidity 93    
Maximum Humidity 100    
Minimum Humidity 86    
Precipitation  
Precipitation 0.00 in - - ()
Sea Level Pressure  
Sea Level Pressure 30.17 in    
Wind  
Wind Speed 8 mph ()    
Max Wind Speed 11 mph    
Max Gust Speed -    
Visibility 5.8 miles    
Events Snow    
Averages and records for this station are not official NWS values.
T = Trace of Precipitation, MM = Missing Value Source: Averaged Metar Reports

Daily Weather History Graph

Daily Weather History Graph

Search for Another Location

Airport or City:

Trip Planner

Search our weather history database for the weather conditions in past years. The results will help you decide how hot, cold, wet, or windy it might be!

Date:

Astronomy

Dec. 18, 2012 Rise Set
Actual Time 9:11 AM CET 3:15 PM CET
Civil Twilight 8:15 AM CET 4:11 PM CET
Nautical Twilight 7:20 AM CET 5:07 PM CET
Astronomical Twilight 6:29 AM CET 5:57 PM CET
Moon 11:22 AM CET (12/18) 10:52 PM CET (12/18)
Length of Visible Light 7h 56m
Length of Day
6h 04m
Waxing Crescent, 32% of the Moon is Illuminated
Dec 18
Waxing Crescent
Dec 20
First Quarter
Dec 28
Full
Jan 5
Last Quarter
Jan 11
New

Hourly Weather History & Observations

Time (CET) Temp. Windchill Dew Point Humidity Pressure Visibility Wind Dir Wind Speed Gust Speed Precip Events Conditions
1:20 AM 32.0 °F 24.2 °F 32.0 °F 100% 30.01 in 4.3 mi North 9.2 mph - N/A Snow Light Snow
1:50 AM 32.0 °F 23.6 °F 30.2 °F 93% 30.01 in 4.3 mi NNE 10.4 mph - N/A Snow Light Snow
2:20 AM 32.0 °F 23.6 °F 30.2 °F 93% 30.01 in 6.2 mi NNE 10.4 mph - N/A Snow Light Snow
2:50 AM 32.0 °F 24.2 °F 30.2 °F 93% 30.04 in 3.7 mi NNE 9.2 mph - N/A Snow Light Snow
3:20 AM 32.0 °F 23.6 °F 30.2 °F 93% 30.04 in 5.0 mi NNE 10.4 mph - N/A Snow Light Snow
3:50 AM 32.0 °F 23.6 °F 30.2 °F 93% 30.04 in 1.2 mi North 10.4 mph - N/A Snow Light Snow
4:20 AM 32.0 °F 24.2 °F 30.2 °F 93% 30.04 in 3.7 mi NNE 9.2 mph - N/A Snow Light Snow
4:50 AM 32.0 °F 23.6 °F 30.2 °F 93% 30.04 in 6.2 mi NNE 10.4 mph - N/A Snow Light Snow
5:20 AM 32.0 °F 23.6 °F 30.2 °F 93% 30.06 in 4.3 mi NNE 10.4 mph - N/A Snow Light Snow
5:50 AM 32.0 °F 23.6 °F 30.2 °F 93% 30.06 in 3.1 mi NNE 10.4 mph - N/A Snow Light Snow
6:20 AM 32.0 °F 23.6 °F 30.2 °F 93% 30.06 in 4.3 mi NNE 10.4 mph - N/A Snow Light Snow
6:50 AM 32.0 °F 23.6 °F 30.2 °F 93% 30.06 in 3.1 mi NNE 10.4 mph - N/A Snow Light Snow
7:00 AM 31 °F - 30 °F 96% 30.10 in 2 mi NNE 11.2 mph - - Snow Light Snow
7:20 AM 32.0 °F 24.2 °F 30.2 °F 93% 30.09 in - NNE 9.2 mph - N/A Snow Light Snow
7:50 AM 32.0 °F 24.2 °F 30.2 °F 93% 30.09 in 6.2 mi NNE 9.2 mph - N/A Snow Light Snow
8:20 AM 30.2 °F 21.9 °F 30.2 °F 100% 30.09 in 6.2 mi NNE 9.2 mph - N/A Snow Light Snow
8:50 AM 30.2 °F 21.9 °F 30.2 °F 100% 30.12 in 6.2 mi NNE 9.2 mph - N/A Snow Light Snow
9:20 AM 30.2 °F 23.4 °F 30.2 °F 100% 30.12 in 6.2 mi NNE 6.9 mph - N/A   Mostly Cloudy
9:50 AM 30.2 °F 23.4 °F 30.2 °F 100% 30.12 in 6.2 mi NNE 6.9 mph - N/A   Mostly Cloudy
10:20 AM 30.2 °F 23.4 °F 30.2 °F 100% 30.15 in 6.2 mi North 6.9 mph - N/A   Mostly Cloudy
10:50 AM 30.2 °F 23.4 °F 30.2 °F 100% 30.15 in 6.2 mi North 6.9 mph - N/A   Mostly Cloudy
11:20 AM 32.0 °F 24.8 °F 30.2 °F 93% 30.15 in 6.2 mi North 8.1 mph - N/A   Mostly Cloudy
11:50 AM 30.2 °F 22.6 °F 30.2 °F 100% 30.18 in 6.2 mi North 8.1 mph - N/A   Mostly Cloudy
12:20 PM 30.2 °F 22.6 °F 28.4 °F 93% 30.18 in 6.2 mi North 8.1 mph - N/A   Mostly Cloudy
12:50 PM 30.2 °F 24.3 °F 28.4 °F 93% 30.18 in 6.2 mi North 5.8 mph - N/A   Mostly Cloudy
1:00 PM 31 °F - 29 °F 91% 30.20 in 22 mi NNE 6.7 mph - -   Partly Cloudy
1:20 PM 30.2 °F 24.3 °F 28.4 °F 93% 30.18 in 6.2 mi NNE 5.8 mph - N/A   Mostly Cloudy
1:50 PM 30.2 °F 24.3 °F 28.4 °F 93% 30.18 in 6.2 mi NNE 5.8 mph - N/A   Mostly Cloudy
2:20 PM 30.2 °F 23.4 °F 28.4 °F 93% 30.18 in 6.2 mi North 6.9 mph - N/A   Mostly Cloudy
2:50 PM 30.2 °F 23.4 °F 28.4 °F 93% 30.21 in 6.2 mi NNE 6.9 mph - N/A   Mostly Cloudy
3:20 PM 30.2 °F 24.3 °F 28.4 °F 93% 30.21 in 6.2 mi NNE 5.8 mph - N/A Snow Light Snow
3:50 PM 30.2 °F 23.4 °F 28.4 °F 93% 30.21 in 6.2 mi NNE 6.9 mph - N/A   Mostly Cloudy
4:20 PM 30.2 °F 22.6 °F 28.4 °F 93% 30.21 in 6.2 mi NNE 8.1 mph - N/A   Mostly Cloudy
4:50 PM 30.2 °F 22.6 °F 28.4 °F 93% 30.24 in 6.2 mi NNE 8.1 mph - N/A   Mostly Cloudy
5:20 PM 30.2 °F 23.4 °F 28.4 °F 93% 30.24 in 6.2 mi NNE 6.9 mph - N/A   Mostly Cloudy
5:50 PM 30.2 °F 23.4 °F 28.4 °F 93% 30.24 in 6.2 mi NNE 6.9 mph - N/A   Mostly Cloudy
6:20 PM 30.2 °F 24.3 °F 28.4 °F 93% 30.27 in 6.2 mi NNE 5.8 mph - N/A   Mostly Cloudy
6:50 PM 30.2 °F 24.3 °F 26.6 °F 86% 30.27 in 6.2 mi NNE 5.8 mph - N/A   Mostly Cloudy
7:00 PM 30 °F - 28 °F 86% 30.29 in 16 mi NNE 6.7 mph - -   Partly Cloudy
7:20 PM 30.2 °F 25.4 °F 26.6 °F 86% 30.27 in 6.2 mi NNE 4.6 mph - N/A   Mostly Cloudy
7:50 PM 30.2 °F 24.3 °F 26.6 °F 86% 30.27 in 6.2 mi NNE 5.8 mph - N/A   Mostly Cloudy
8:20 PM 30.2 °F 25.4 °F 26.6 °F 86% 30.27 in 6.2 mi NNE 4.6 mph - N/A   Mostly Cloudy
8:50 PM 30.2 °F 23.4 °F 26.6 °F 86% 30.30 in 6.2 mi North 6.9 mph - N/A   Mostly Cloudy
9:20 PM 30.2 °F 23.4 °F 26.6 °F 86% 30.30 in 6.2 mi North 6.9 mph - N/A   Mostly Cloudy
9:50 PM 30.2 °F 24.3 °F 26.6 °F 86% 30.30 in 6.2 mi North 5.8 mph - N/A   Mostly Cloudy
10:20 PM 28.4 °F 22.2 °F 26.6 °F 93% 30.30 in 6.2 mi NNE 5.8 mph - N/A   Mostly Cloudy
10:50 PM 28.4 °F 22.2 °F 26.6 °F 93% 30.30 in 6.2 mi NNE 5.8 mph - N/A   Mostly Cloudy
11:20 PM 28.4 °F 23.3 °F 26.6 °F 93% 30.30 in 6.2 mi NNE 4.6 mph - N/A   Mostly Cloudy
11:50 PM 28.4 °F 23.3 °F 28.4 °F 100% 30.33 in 6.2 mi North 4.6 mph - N/A   Overcast